• In Hungary
  • List of Countries
  • For 7 days
  • Water Temperature
  • Satellite Maps
  • Weather Map
  • News
  • Weather Widgets
  • user-avatar
    Login

    Hourly Weather Barutino

    Today, 19 August, Sunday

    Time Temperature Precipitation Wind Pressure Humidity
    00:00 +16°C° 0 mm 2 mps 746 mmHg 89%
    01:00 +16°C° 0 mm 2 mps 745 mmHg 91%
    02:00 +15°C° 0 mm 2 mps 745 mmHg 93%
    03:00 +15°C° 0.1 mm 2 mps 745 mmHg 93%
    04:00 +15°C° 0.1 mm 2 mps 745 mmHg 94%
    05:00 +16°C° 0.1 mm 2 mps 745 mmHg 95%
    06:00 +17°C° 0.1 mm 3 mps 745 mmHg 92%
    07:00 +18°C° 0.1 mm 3 mps 745 mmHg 88%
    08:00 +20°C° 0.1 mm 3 mps 744 mmHg 84%
    09:00 +21°C° 0.1 mm 3 mps 744 mmHg 79%
    10:00 +22°C° 0.1 mm 3 mps 744 mmHg 73%
    11:00 +25°C° 0.1 mm 4 mps 744 mmHg 68%
    12:00 +25°C° 0.3 mm 4 mps 743 mmHg 67%
    13:00 +25°C° 0.3 mm 4 mps 743 mmHg 66%
    14:00 +26°C° 0.3 mm 4 mps 743 mmHg 66%
    15:00 +25°C° 0.5 mm 3 mps 743 mmHg 70%
    16:00 +24°C° 0.5 mm 3 mps 743 mmHg 74%
    17:00 +22°C° 0.5 mm 3 mps 742 mmHg 78%
    18:00 +21°C° 0.1 mm 2 mps 742 mmHg 80%
    19:00 +19°C° 0.1 mm 2 mps 743 mmHg 82%
    20:00 +17°C° 0.1 mm 2 mps 743 mmHg 84%
    21:00 +16°C° 0 mm 2 mps 743 mmHg 86%
    22:00 +16°C° 0 mm 2 mps 743 mmHg 87%
    23:00 +16°C° 0 mm 2 mps 743 mmHg 89%

    Tomorrow, 20 August, Monday

    Time Temperature Precipitation Wind Pressure Humidity
    00:00 +15°C° 0 mm 2 mps 743 mmHg 92%
    01:00 +15°C° 0 mm 2 mps 743 mmHg 94%
    02:00 +15°C° 0 mm 2 mps 743 mmHg 97%
    03:00 +15°C° 0 mm 2 mps 743 mmHg 97%
    04:00 +15°C° 0 mm 2 mps 743 mmHg 98%
    05:00 +15°C° 0 mm 2 mps 743 mmHg 98%
    06:00 +16°C° 0 mm 2 mps 743 mmHg 95%
    07:00 +17°C° 0 mm 2 mps 743 mmHg 92%
    08:00 +18°C° 0 mm 2 mps 743 mmHg 89%
    09:00 +19°C° 0.2 mm 2 mps 742 mmHg 85%
    10:00 +20°C° 0.2 mm 3 mps 742 mmHg 81%
    11:00 +21°C° 0.2 mm 3 mps 742 mmHg 78%
    12:00 +21°C° 0.5 mm 3 mps 742 mmHg 81%
    13:00 +21°C° 0.5 mm 3 mps 741 mmHg 84%
    14:00 +20°C° 0.5 mm 3 mps 741 mmHg 88%
    15:00 +20°C° 0.3 mm 2 mps 740 mmHg 87%
    16:00 +21°C° 0.3 mm 2 mps 740 mmHg 87%
    17:00 +21°C° 0.3 mm 2 mps 739 mmHg 87%
    18:00 +20°C° 0.2 mm 2 mps 739 mmHg 88%
    19:00 +19°C° 0.2 mm 3 mps 738 mmHg 89%
    20:00 +19°C° 0.2 mm 3 mps 738 mmHg 91%
    21:00 +18°C° 0.1 mm 3 mps 738 mmHg 90%
    22:00 +18°C° 0.1 mm 4 mps 737 mmHg 90%
    23:00 +18°C° 0.1 mm 4 mps 737 mmHg 90%

    Day after tomorrow, 21 August, Tuesday

    Time Temperature Precipitation Wind Pressure Humidity
    00:00 +18°C° 0 mm 4 mps 736 mmHg 90%
    01:00 +18°C° 0 mm 4 mps 735 mmHg 90%
    02:00 +18°C° 0 mm 4 mps 734 mmHg 91%
    03:00 +17°C° 0.6 mm 5 mps 734 mmHg 92%
    04:00 +16°C° 0.6 mm 5 mps 733 mmHg 93%
    05:00 +16°C° 0.6 mm 5 mps 733 mmHg 94%
    06:00 +16°C° 0.7 mm 5 mps 733 mmHg 93%
    07:00 +15°C° 0.7 mm 5 mps 733 mmHg 91%
    08:00 +14°C° 0.7 mm 6 mps 733 mmHg 90%
    09:00 +14°C° 0.1 mm 6 mps 734 mmHg 85%
    10:00 +14°C° 0.1 mm 6 mps 734 mmHg 80%
    11:00 +14°C° 0.1 mm 6 mps 735 mmHg 76%
    12:00 +15°C° 0.3 mm 6 mps 735 mmHg 73%
    13:00 +15°C° 0.3 mm 6 mps 736 mmHg 71%
    14:00 +16°C° 0.3 mm 6 mps 736 mmHg 69%
    15:00 +16°C° 0.3 mm 6 mps 737 mmHg 70%
    16:00 +15°C° 0.3 mm 5 mps 737 mmHg 71%
    17:00 +15°C° 0.3 mm 5 mps 737 mmHg 72%
    18:00 +14°C° 0 mm 4 mps 738 mmHg 75%
    19:00 +13°C° 0 mm 4 mps 738 mmHg 78%
    20:00 +12°C° 0 mm 3 mps 738 mmHg 81%
    21:00 +11°C° 0 mm 3 mps 739 mmHg 80%
    22:00 +11°C° 0 mm 3 mps 739 mmHg 79%
    23:00 +10°C° 0 mm 3 mps 740 mmHg 77%

    22 August, Wednesday

    Time Temperature Precipitation Wind Pressure Humidity
    00:00 +10°C° 0 mm 4 mps 740 mmHg 77%
    01:00 +10°C° 0 mm 4 mps 740 mmHg 78%
    02:00 +10°C° 0 mm 4 mps 741 mmHg 78%
    03:00 +9°C° 0 mm 3 mps 741 mmHg 79%
    04:00 +9°C° 0 mm 3 mps 742 mmHg 81%
    05:00 +9°C° 0 mm 3 mps 742 mmHg 83%
    06:00 +10°C° 0 mm 4 mps 743 mmHg 75%
    07:00 +11°C° 0 mm 4 mps 743 mmHg 67%
    08:00 +13°C° 0 mm 5 mps 744 mmHg 59%
    09:00 +14°C° 0 mm 5 mps 744 mmHg 55%
    10:00 +14°C° 0 mm 5 mps 745 mmHg 51%
    11:00 +15°C° 0 mm 5 mps 745 mmHg 47%
    12:00 +16°C° 0 mm 5 mps 745 mmHg 46%
    13:00 +16°C° 0 mm 5 mps 745 mmHg 44%
    14:00 +18°C° 0 mm 4 mps 746 mmHg 43%
    15:00 +18°C° 0 mm 4 mps 746 mmHg 46%
    16:00 +17°C° 0 mm 3 mps 746 mmHg 49%
    17:00 +17°C° 0 mm 3 mps 746 mmHg 51%
    18:00 +15°C° 0 mm 2 mps 746 mmHg 60%
    19:00 +13°C° 0 mm 2 mps 747 mmHg 68%
    20:00 +11°C° 0 mm 1 mps 747 mmHg 76%
    21:00 +11°C° 0 mm 1 mps 747 mmHg 77%
    22:00 +11°C° 0 mm 1 mps 747 mmHg 78%
    23:00 +9°C° 0 mm 2 mps 747 mmHg 80%

    23 August, Thursday

    Time Temperature Precipitation Wind Pressure Humidity
    00:00 +9°C° 0 mm 2 mps 747 mmHg 80%
    01:00 +9°C° 0 mm 2 mps 747 mmHg 80%
    02:00 +9°C° 0 mm 2 mps 747 mmHg 80%
    03:00 +9°C° 0 mm 2 mps 747 mmHg 80%
    04:00 +9°C° 0 mm 2 mps 747 mmHg 81%
    05:00 +9°C° 0 mm 3 mps 747 mmHg 81%
    06:00 +11°C° 0 mm 3 mps 747 mmHg 76%
    07:00 +13°C° 0 mm 3 mps 747 mmHg 70%
    08:00 +15°C° 0 mm 4 mps 747 mmHg 64%
    09:00 +17°C° 0 mm 4 mps 747 mmHg 59%
    10:00 +19°C° 0 mm 4 mps 746 mmHg 55%
    11:00 +20°C° 0 mm 5 mps 746 mmHg 50%
    12:00 +21°C° 0 mm 5 mps 746 mmHg 49%
    13:00 +21°C° 0 mm 5 mps 746 mmHg 48%
    14:00 +22°C° 0 mm 5 mps 745 mmHg 47%
    15:00 +21°C° 0 mm 4 mps 745 mmHg 50%
    16:00 +21°C° 0 mm 3 mps 745 mmHg 53%
    17:00 +21°C° 0 mm 3 mps 745 mmHg 56%
    18:00 +19°C° 0 mm 3 mps 745 mmHg 63%
    19:00 +17°C° 0 mm 3 mps 745 mmHg 70%
    20:00 +15°C° 0 mm 2 mps 745 mmHg 77%
    21:00 +14°C° 0 mm 3 mps 745 mmHg 78%
    22:00 +14°C° 0 mm 3 mps 745 mmHg 80%
    23:00 +13°C° 0 mm 3 mps 745 mmHg 82%

    24 August, Friday

    Time Temperature Precipitation Wind Pressure Humidity
    00:00 +14°C° 0 mm 2 mps 745 mmHg 84%
    01:00 +13°C° 0 mm 2 mps 745 mmHg 86%
    02:00 +13°C° 0 mm 2 mps 745 mmHg 89%
    03:00 +13°C° 0 mm 2 mps 745 mmHg 90%
    04:00 +13°C° 0 mm 2 mps 745 mmHg 91%
    05:00 +12°C° 0 mm 2 mps 745 mmHg 92%
    06:00 +14°C° 0 mm 2 mps 745 mmHg 85%
    07:00 +16°C° 0 mm 2 mps 745 mmHg 79%
    08:00 +18°C° 0 mm 2 mps 745 mmHg 72%
    09:00 +20°C° 0 mm 3 mps 745 mmHg 65%
    10:00 +21°C° 0 mm 3 mps 745 mmHg 59%
    11:00 +24°C° 0 mm 3 mps 745 mmHg 53%
    12:00 +25°C° 0 mm 3 mps 745 mmHg 51%
    13:00 +25°C° 0 mm 3 mps 745 mmHg 49%
    14:00 +26°C° 0 mm 3 mps 744 mmHg 47%
    15:00 +25°C° 0 mm 3 mps 744 mmHg 51%
    16:00 +24°C° 0 mm 2 mps 744 mmHg 55%
    17:00 +24°C° 0 mm 2 mps 744 mmHg 59%
    18:00 +21°C° 0 mm 2 mps 744 mmHg 66%
    19:00 +19°C° 0 mm 2 mps 744 mmHg 72%
    20:00 +16°C° 0 mm 2 mps 744 mmHg 79%
    21:00 +16°C° 0 mm 2 mps 744 mmHg 81%
    22:00 +15°C° 0 mm 2 mps 744 mmHg 84%
    23:00 +14°C° 0 mm 2 mps 744 mmHg 86%
    Show more